When you browse on this site, cookies collect data to enhance your experience and personalize the content and advertising you see.
Visit our Privacy Policy to learn more. By continuing to use the site, you agree to this use of cookies and data.
EN

Hourly Weather Csongrad

Today, 13 August, Thursday

Time Temperature Precipitation Wind Pressure Humidity
00:00 +21°C° 0 mm 2 mps 755 mmHg 61%
01:00 +20°C° 0 mm 2 mps 756 mmHg 66%
02:00 +20°C° 0 mm 2 mps 755 mmHg 68%
03:00 +19°C° 0 mm 2 mps 755 mmHg 69%
04:00 +19°C° 0 mm 2 mps 755 mmHg 70%
05:00 +20°C° 0 mm 2 mps 755 mmHg 67%
06:00 +21°C° 0 mm 2 mps 756 mmHg 64%
07:00 +24°C° 0 mm 2 mps 756 mmHg 60%
08:00 +25°C° 0 mm 2 mps 756 mmHg 54%
09:00 +27°C° 0 mm 2 mps 755 mmHg 48%
10:00 +29°C° 0 mm 2 mps 755 mmHg 42%
11:00 +30°C° 0 mm 1 mps 755 mmHg 40%
12:00 +31°C° 0 mm 1 mps 755 mmHg 38%
13:00 +32°C° 0 mm 1 mps 754 mmHg 36%
14:00 +32°C° 0 mm 1 mps 754 mmHg 35%
15:00 +32°C° 0 mm 1 mps 753 mmHg 34%
16:00 +32°C° 0 mm 1 mps 753 mmHg 33%
17:00 +31°C° 0 mm 2 mps 753 mmHg 38%
18:00 +29°C° 0 mm 2 mps 753 mmHg 43%
19:00 +27°C° 0 mm 2 mps 753 mmHg 48%
20:00 +26°C° 0 mm 2 mps 753 mmHg 48%
21:00 +26°C° 0 mm 2 mps 753 mmHg 49%
22:00 +25°C° 0 mm 2 mps 753 mmHg 50%
23:00 +25°C° 0 mm 2 mps 753 mmHg 51%

Tomorrow, 14 August, Friday

Time Temperature Precipitation Wind Pressure Humidity
00:00 +24°C° 0 mm 2 mps 753 mmHg 52%
01:00 +24°C° 0 mm 2 mps 753 mmHg 53%
02:00 +24°C° 0 mm 2 mps 753 mmHg 53%
03:00 +23°C° 0 mm 2 mps 752 mmHg 53%
04:00 +23°C° 0 mm 1 mps 752 mmHg 54%
05:00 +23°C° 0 mm 1 mps 752 mmHg 55%
06:00 +24°C° 0 mm 1 mps 753 mmHg 56%
07:00 +24°C° 0 mm 1 mps 753 mmHg 57%
08:00 +24°C° 0 mm 2 mps 753 mmHg 55%
09:00 +25°C° 0 mm 2 mps 753 mmHg 54%
10:00 +25°C° 0 mm 2 mps 753 mmHg 53%
11:00 +26°C° 0 mm 2 mps 752 mmHg 53%
12:00 +26°C° 0 mm 2 mps 752 mmHg 52%
13:00 +27°C° 0 mm 2 mps 752 mmHg 52%
14:00 +27°C° 0 mm 2 mps 752 mmHg 53%
15:00 +26°C° 0 mm 2 mps 751 mmHg 54%
16:00 +26°C° 0 mm 2 mps 751 mmHg 55%
17:00 +26°C° 0 mm 2 mps 751 mmHg 56%
18:00 +25°C° 0 mm 2 mps 751 mmHg 57%
19:00 +24°C° 0 mm 2 mps 751 mmHg 58%
20:00 +23°C° 0 mm 2 mps 751 mmHg 60%
21:00 +23°C° 0 mm 1 mps 751 mmHg 62%
22:00 +22°C° 0 mm 1 mps 752 mmHg 64%
23:00 +22°C° 0 mm 1 mps 751 mmHg 65%

Day after tomorrow, 15 August, Saturday

Time Temperature Precipitation Wind Pressure Humidity
00:00 +22°C° 0 mm 1 mps 751 mmHg 67%
01:00 +22°C° 0 mm 1 mps 751 mmHg 68%
02:00 +21°C° 0.2 mm 1 mps 751 mmHg 72%
03:00 +21°C° 0.2 mm 1 mps 751 mmHg 75%
04:00 +21°C° 0.2 mm 1 mps 751 mmHg 79%
05:00 +21°C° 0.2 mm 1 mps 751 mmHg 76%
06:00 +22°C° 0.2 mm 1 mps 751 mmHg 73%
07:00 +23°C° 0.2 mm 1 mps 751 mmHg 71%
08:00 +25°C° 0.1 mm 1 mps 752 mmHg 65%
09:00 +27°C° 0.1 mm 1 mps 752 mmHg 59%
10:00 +26°C° 0.1 mm 0 mps 752 mmHg 54%
11:00 +27°C° 0.1 mm 0 mps 752 mmHg 51%
12:00 +30°C° 0.1 mm 1 mps 751 mmHg 49%
13:00 +31°C° 0.1 mm 1 mps 751 mmHg 46%
14:00 +31°C° 0 mm 1 mps 751 mmHg 46%
15:00 +31°C° 0 mm 1 mps 751 mmHg 45%
16:00 +32°C° 0 mm 1 mps 750 mmHg 44%
17:00 +30°C° 0.1 mm 1 mps 750 mmHg 51%
18:00 +28°C° 0.1 mm 2 mps 750 mmHg 58%
19:00 +26°C° 0.1 mm 2 mps 750 mmHg 64%
20:00 +25°C° 1.3 mm 2 mps 750 mmHg 72%
21:00 +24°C° 1.3 mm 2 mps 750 mmHg 80%
22:00 +21°C° 1.3 mm 2 mps 751 mmHg 87%
23:00 +21°C° 0.4 mm 2 mps 751 mmHg 89%

16 August, Sunday

Time Temperature Precipitation Wind Pressure Humidity
00:00 +21°C° 0.4 mm 2 mps 751 mmHg 91%
01:00 +20°C° 0.4 mm 2 mps 751 mmHg 92%
02:00 +20°C° 0.1 mm 2 mps 751 mmHg 93%
03:00 +20°C° 0.1 mm 2 mps 751 mmHg 94%
04:00 +20°C° 0.1 mm 1 mps 750 mmHg 95%
05:00 +20°C° 0 mm 2 mps 751 mmHg 91%
06:00 +21°C° 0 mm 2 mps 751 mmHg 88%
07:00 +23°C° 0 mm 2 mps 751 mmHg 85%
08:00 +24°C° 0 mm 2 mps 752 mmHg 79%
09:00 +25°C° 0 mm 2 mps 752 mmHg 74%
10:00 +27°C° 0 mm 2 mps 752 mmHg 68%
11:00 +27°C° 0.5 mm 2 mps 752 mmHg 64%
12:00 +28°C° 0.5 mm 2 mps 752 mmHg 61%
13:00 +29°C° 0.5 mm 3 mps 752 mmHg 57%
14:00 +29°C° 0.6 mm 2 mps 751 mmHg 57%
15:00 +29°C° 0.6 mm 2 mps 751 mmHg 57%
16:00 +29°C° 0.6 mm 2 mps 751 mmHg 57%
17:00 +28°C° 0.2 mm 2 mps 751 mmHg 60%
18:00 +27°C° 0.2 mm 1 mps 751 mmHg 64%
19:00 +26°C° 0.2 mm 1 mps 751 mmHg 68%
20:00 +26°C° 0.1 mm 2 mps 752 mmHg 69%
21:00 +25°C° 0.1 mm 2 mps 752 mmHg 70%
22:00 +25°C° 0.1 mm 3 mps 752 mmHg 71%
23:00 +24°C° 0 mm 3 mps 752 mmHg 72%

17 August, Monday

Time Temperature Precipitation Wind Pressure Humidity
00:00 +24°C° 0 mm 3 mps 752 mmHg 73%
01:00 +22°C° 0 mm 3 mps 752 mmHg 74%
02:00 +22°C° 0 mm 3 mps 752 mmHg 74%
03:00 +21°C° 0 mm 3 mps 752 mmHg 74%
04:00 +21°C° 0 mm 3 mps 752 mmHg 74%
05:00 +22°C° 0 mm 3 mps 752 mmHg 70%
06:00 +23°C° 0 mm 4 mps 752 mmHg 66%
07:00 +23°C° 0 mm 5 mps 752 mmHg 62%
08:00 +26°C° 0 mm 5 mps 752 mmHg 57%
09:00 +28°C° 0 mm 5 mps 752 mmHg 52%
10:00 +29°C° 0 mm 5 mps 752 mmHg 48%
11:00 +30°C° 0 mm 4 mps 751 mmHg 46%
12:00 +32°C° 0 mm 4 mps 751 mmHg 44%
13:00 +33°C° 0 mm 3 mps 751 mmHg 42%
14:00 +33°C° 0 mm 3 mps 750 mmHg 41%
15:00 +33°C° 0 mm 3 mps 750 mmHg 41%
16:00 +34°C° 0 mm 2 mps 749 mmHg 41%
17:00 +31°C° 0 mm 2 mps 749 mmHg 45%
18:00 +29°C° 0 mm 2 mps 749 mmHg 50%
19:00 +28°C° 0 mm 2 mps 749 mmHg 55%
20:00 +27°C° 0.4 mm 3 mps 749 mmHg 60%
21:00 +26°C° 0.4 mm 3 mps 749 mmHg 64%
22:00 +25°C° 0.4 mm 3 mps 749 mmHg 69%
23:00 +24°C° 0.2 mm 3 mps 749 mmHg 70%

18 August, Tuesday

Time Temperature Precipitation Wind Pressure Humidity
00:00 +22°C° 0.2 mm 3 mps 749 mmHg 71%
01:00 +22°C° 0.2 mm 3 mps 749 mmHg 73%
02:00 +23°C° 0.5 mm 2 mps 749 mmHg 75%
03:00 +21°C° 0.5 mm 2 mps 749 mmHg 77%
04:00 +22°C° 0.5 mm 1 mps 749 mmHg 79%
05:00 +23°C° 0.5 mm 2 mps 749 mmHg 78%
06:00 +23°C° 0.5 mm 2 mps 749 mmHg 76%
07:00 +24°C° 0.5 mm 3 mps 749 mmHg 75%
08:00 +26°C° 0.2 mm 3 mps 749 mmHg 69%
09:00 +27°C° 0.2 mm 2 mps 749 mmHg 64%
10:00 +29°C° 0.2 mm 2 mps 749 mmHg 58%
11:00 +30°C° 0 mm 3 mps 749 mmHg 55%
12:00 +31°C° 0 mm 3 mps 748 mmHg 51%
13:00 +33°C° 0 mm 3 mps 748 mmHg 48%
14:00 +32°C° 0 mm 4 mps 748 mmHg 51%
15:00 +30°C° 0 mm 5 mps 748 mmHg 53%
16:00 +30°C° 0 mm 6 mps 748 mmHg 56%
17:00 +28°C° 0 mm 5 mps 748 mmHg 62%
18:00 +26°C° 0 mm 5 mps 748 mmHg 67%
19:00 +23°C° 0 mm 4 mps 748 mmHg 73%
20:00 +22°C° 0.1 mm 4 mps 748 mmHg 76%
21:00 +21°C° 0.1 mm 4 mps 748 mmHg 78%
22:00 +20°C° 0.1 mm 4 mps 749 mmHg 81%
23:00 +20°C° 0 mm 4 mps 749 mmHg 82%
Show more